Total_Precipitation_Accumulation
0.02 0.03 0.02 0.03 0.02 0.02 0.02 0.02 0.03 0.03 0.03 0.03 0.02 0.02 0.03 0.03 0.02 0.03 0.02 0.02 0.01 0.02 0.02 0.01 0.02 0.01 0.01 0.00 0.00 0.00 0.00 0.00 0.00 0.00 0.00 0.00 0.00 0.00 0.00 0.00 0.00 0.00 0.00 0.00 0.00 0.00 0.00 0.00 0.00 0.00 0.00 0.00 0.00 0.00 0.00 0.00 0.00 0.00 0.00 0.00 0.00 0.00 0.00 0.00 0.00 0.00 0.00 0.00 0.00 0.00 0.00 0.00 0.00 0.00 0.00 0.00 0.00 0.00 0.00 0.02 0.01 0.02 0.05 0.12 0.04 0.12 0.03 0.02
0.02 0.02 0.02 0.01 0.02 0.02 0.01 0.02 0.02 0.02 0.02 0.02 0.02 0.02 0.03 0.03 0.03 0.01 0.02 0.02 0.02 0.02 0.02 0.02 0.01 0.01 0.01 0.00 0.00 0.00 0.00 0.00 0.00 0.00 0.00 0.00 0.00 0.00 0.00 0.00 0.00 0.00 0.00 0.00 0.00 0.00 0.00 0.00 0.00 0.00 0.00 0.00 0.00 0.00 0.00 0.00 0.00 0.00 0.00 0.00 0.00 0.00 0.00 0.00 0.00 0.00 0.00 0.00 0.00 0.00 0.00 0.00 0.00 0.00 0.00 0.02 0.01 0.01 0.01 0.03 0.04 0.10 0.16 0.19 0.07 0.02 0.04 0.03
0.01 0.01 0.02 0.01 0.02 0.02 0.03 0.02 0.01 0.01 0.02 0.02 0.01 0.02 0.02 0.03 0.02 0.02 0.01 0.02 0.02 0.01 0.01 0.01 0.01 0.00 0.00 0.00 0.00 0.00 0.00 0.00 0.00 0.00 0.00 0.00 0.00 0.00 0.00 0.00 0.00 0.00 0.00 0.00 0.00 0.00 0.00 0.00 0.00 0.00 0.00 0.00 0.00 0.00 0.00 0.00 0.00 0.00 0.00 0.00 0.00 0.00 0.00 0.00 0.00 0.00 0.00 0.00 0.00 0.00 0.00 0.00 0.00 0.00 0.00 0.01 0.01 0.00 0.03 0.01 0.03 0.19 0.35 0.13 0.09 0.11 0.07 0.07
0.01 0.01 0.01 0.03 0.02 0.02 0.02 0.02 0.02 0.02 0.02 0.02 0.02 0.02 0.02 0.02 0.02 0.02 0.02 0.01 0.00 0.00 0.01 0.00 0.00 0.00 0.00 0.00 0.00 0.00 0.00 0.00 0.00 0.00 0.00 0.00 0.00 0.00 0.00 0.00 0.00 0.00 0.00 0.00 0.00 0.00 0.00 0.00 0.00 0.00 0.00 0.00 0.00 0.00 0.00 0.00 0.00 0.00 0.00 0.00 0.00 0.00 0.00 0.00 0.00 0.00 0.00 0.00 0.00 0.00 0.00 0.00 0.00 0.00 0.00 0.00 0.02 0.00 0.06 0.04 0.02 0.09 0.18 0.13 0.12 0.07 0.09 0.07
0.01 0.01 0.03 0.02 0.02 0.03 0.02 0.02 0.02 0.02 0.02 0.03 0.03 0.02 0.02 0.01 0.02 0.02 0.02 0.01 0.01 0.00 0.01 0.00 0.00 0.00 0.00 0.00 0.00 0.00 0.00 0.00 0.00 0.00 0.00 0.00 0.00 0.00 0.00 0.00 0.00 0.00 0.00 0.00 0.00 0.00 0.00 0.00 0.00 0.00 0.00 0.00 0.00 0.00 0.00 0.00 0.00 0.00 0.00 0.00 0.00 0.00 0.00 0.00 0.00 0.00 0.00 0.00 0.00 0.00 0.00 0.00 0.00 0.00 0.00 0.00 0.00 0.03 0.02 0.03 0.01 0.04 0.41 0.08 0.13 0.14 0.10 0.08
0.01 0.02 0.02 0.02 0.02 0.02 0.02 0.01 0.01 0.02 0.02 0.03 0.03 0.03 0.03 0.02 0.02 0.02 0.01 0.02 0.02 0.01 0.01 0.00 0.00 0.00 0.00 0.00 0.00 0.00 0.00 0.00 0.00 0.00 0.00 0.00 0.00 0.00 0.00 0.00 0.00 0.00 0.00 0.00 0.00 0.00 0.00 0.00 0.00 0.00 0.00 0.00 0.00 0.00 0.00 0.00 0.00 0.00 0.00 0.00 0.00 0.00 0.00 0.00 0.00 0.00 0.00 0.00 0.00 0.00 0.00 0.00 0.00 0.00 0.00 0.00 0.00 0.00 0.00 0.00 0.01 0.04 0.13 0.05 0.06 0.05 0.09 0.08
0.02 0.02 0.01 0.01 0.01 0.02 0.01 0.02 0.01 0.02 0.02 0.02 0.02 0.03 0.02 0.03 0.02 0.01 0.01 0.02 0.01 0.01 0.00 0.00 0.00 0.00 0.00 0.00 0.00 0.00 0.00 0.00 0.00 0.00 0.00 0.00 0.00 0.00 0.00 0.00 0.00 0.00 0.00 0.00 0.00 0.00 0.00 0.00 0.00 0.00 0.00 0.00 0.00 0.00 0.00 0.00 0.00 0.00 0.00 0.00 0.00 0.00 0.00 0.00 0.00 0.00 0.00 0.00 0.00 0.00 0.00 0.00 0.00 0.00 0.00 0.00 0.00 0.00 0.01 0.02 0.01 0.04 0.08 0.03 0.05 0.06 0.07 0.09
0.01 0.01 0.01 0.01 0.01 0.01 0.02 0.02 0.02 0.02 0.02 0.02 0.02 0.02 0.02 0.02 0.03 0.02 0.01 0.01 0.01 0.01 0.01 0.00 0.00 0.00 0.00 0.00 0.00 0.00 0.00 0.00 0.00 0.00 0.00 0.00 0.00 0.00 0.00 0.00 0.00 0.00 0.00 0.00 0.00 0.00 0.00 0.00 0.00 0.00 0.00 0.00 0.00 0.00 0.00 0.00 0.00 0.00 0.00 0.00 0.00 0.00 0.00 0.00 0.00 0.00 0.00 0.00 0.00 0.00 0.00 0.00 0.00 0.00 0.00 0.00 0.00 0.00 0.00 0.00 0.01 0.03 0.04 0.05 0.05 0.06 0.07 0.08
0.01 0.01 0.01 0.01 0.01 0.01 0.02 0.01 0.02 0.01 0.01 0.01 0.02 0.01 0.02 0.02 0.02 0.02 0.01 0.01 0.01 0.01 0.00 0.00 0.00 0.00 0.00 0.00 0.00 0.00 0.00 0.00 0.00 0.00 0.00 0.00 0.00 0.00 0.00 0.00 0.00 0.00 0.00 0.00 0.00 0.00 0.00 0.00 0.00 0.00 0.00 0.00 0.00 0.00 0.00 0.00 0.00 0.00 0.00 0.00 0.00 0.00 0.00 0.00 0.00 0.00 0.00 0.00 0.00 0.00 0.00 0.00 0.00 0.00 0.00 0.00 0.00 0.00 0.00 0.00 0.00 0.02 0.03 0.07 0.06 0.04 0.06 0.10
0.01 0.01 0.01 0.01 0.01 0.01 0.01 0.01 0.01 0.01 0.00 0.01 0.01 0.01 0.01 0.01 0.01 0.02 0.01 0.01 0.01 0.01 0.01 0.00 0.00 0.00 0.00 0.00 0.00 0.00 0.00 0.00 0.00 0.00 0.00 0.00 0.00 0.00 0.00 0.00 0.00 0.00 0.00 0.00 0.00 0.00 0.00 0.00 0.00 0.00 0.00 0.00 0.00 0.00 0.00 0.00 0.00 0.00 0.00 0.00 0.00 0.00 0.00 0.00 0.00 0.00 0.00 0.00 0.00 0.00 0.00 0.00 0.00 0.00 0.00 0.00 0.00 0.00 0.00 0.00 0.00 0.01 0.02 0.11 0.09 0.10 0.12 0.07
0.01 0.01 0.01 0.01 0.01 0.01 0.01 0.01 0.01 0.01 0.01 0.01 0.01 0.01 0.01 0.01 0.01 0.01 0.03 0.01 0.01 0.01 0.01 0.00 0.00 0.00 0.00 0.00 0.00 0.00 0.00 0.00 0.00 0.00 0.00 0.00 0.00 0.00 0.00 0.00 0.00 0.00 0.00 0.00 0.00 0.00 0.00 0.00 0.00 0.00 0.00 0.00 0.00 0.00 0.00 0.00 0.00 0.00 0.00 0.00 0.00 0.00 0.00 0.00 0.00 0.00 0.00 0.00 0.00 0.00 0.00 0.00 0.00 0.00 0.00 0.00 0.00 0.00 0.00 0.00 0.01 0.02 0.04 0.09 0.12 0.11 0.16 0.13
0.01 0.01 0.01 0.00 0.01 0.01 0.00 0.00 0.00 0.01 0.01 0.02 0.02 0.02 0.01 0.01 0.01 0.01 0.02 0.02 0.01 0.01 0.00 0.00 0.01 0.00 0.00 0.00 0.00 0.00 0.00 0.00 0.00 0.00 0.00 0.00 0.00 0.00 0.00 0.00 0.00 0.00 0.00 0.00 0.00 0.00 0.00 0.00 0.00 0.00 0.00 0.00 0.00 0.00 0.00 0.00 0.00 0.00 0.00 0.00 0.00 0.00 0.00 0.00 0.00 0.00 0.00 0.00 0.00 0.00 0.00 0.00 0.00 0.00 0.00 0.00 0.00 0.00 0.00 0.00 0.01 0.02 0.04 0.12 0.08 0.16 0.11 0.14
0.01 0.01 0.00 0.00 0.01 0.01 0.00 0.01 0.01 0.01 0.02 0.03 0.02 0.02 0.02 0.01 0.01 0.01 0.01 0.01 0.01 0.00 0.00 0.00 0.00 0.00 0.00 0.00 0.00 0.00 0.00 0.00 0.00 0.00 0.00 0.00 0.00 0.00 0.00 0.00 0.00 0.00 0.00 0.00 0.00 0.00 0.00 0.00 0.00 0.00 0.00 0.00 0.00 0.00 0.00 0.00 0.00 0.00 0.00 0.00 0.00 0.00 0.00 0.00 0.00 0.00 0.00 0.00 0.00 0.00 0.00 0.00 0.00 0.00 0.00 0.00 0.00 0.00 0.00 0.01 0.01 0.07 0.07 0.07 0.09 0.08 0.08 0.09
0.00 0.00 0.01 0.01 0.00 0.00 0.01 0.01 0.01 0.02 0.01 0.01 0.01 0.01 0.01 0.02 0.01 0.01 0.01 0.02 0.02 0.03 0.01 0.01 0.00 0.00 0.00 0.00 0.00 0.00 0.00 0.00 0.00 0.00 0.00 0.00 0.00 0.00 0.00 0.00 0.00 0.00 0.00 0.00 0.00 0.00 0.00 0.00 0.00 0.00 0.00 0.00 0.00 0.00 0.00 0.00 0.00 0.00 0.00 0.00 0.00 0.00 0.00 0.00 0.00 0.00 0.00 0.00 0.00 0.00 0.00 0.00 0.00 0.00 0.00 0.00 0.00 0.00 0.00 0.00 0.01 0.05 0.06 0.05 0.09 0.07 0.07 0.14
0.00 0.01 0.01 0.00 0.00 0.00 0.01 0.01 0.00 0.00 0.01 0.01 0.01 0.01 0.01 0.01 0.01 0.02 0.02 0.02 0.01 0.00 0.00 0.00 0.00 0.00 0.00 0.00 0.00 0.00 0.00 0.00 0.00 0.00 0.00 0.00 0.00 0.00 0.00 0.00 0.00 0.00 0.00 0.00 0.00 0.00 0.00 0.00 0.00 0.00 0.00 0.00 0.00 0.00 0.00 0.00 0.00 0.00 0.00 0.00 0.00 0.00 0.00 0.00 0.00 0.00 0.00 0.00 0.00 0.00 0.00 0.00 0.00 0.00 0.00 0.00 0.00 0.00 0.00 0.00 0.01 0.02 0.05 0.09 0.06 0.07 0.08 0.08
0.00 0.01 0.00 0.00 0.00 0.00 0.00 0.00 0.00 0.01 0.01 0.01 0.01 0.01 0.01 0.02 0.02 0.02 0.02 0.02 0.01 0.00 0.01 0.00 0.00 0.00 0.00 0.00 0.00 0.00 0.00 0.00 0.00 0.00 0.00 0.00 0.00 0.00 0.00 0.00 0.00 0.00 0.00 0.00 0.00 0.00 0.00 0.00 0.00 0.00 0.00 0.00 0.00 0.00 0.00 0.00 0.00 0.00 0.00 0.00 0.00 0.00 0.00 0.00 0.00 0.00 0.00 0.00 0.00 0.00 0.00 0.00 0.00 0.00 0.00 0.00 0.00 0.00 0.00 0.00 0.01 0.02 0.07 0.11 0.10 0.10 0.10 0.18
0.00 0.00 0.00 0.00 0.00 0.00 0.00 0.01 0.01 0.01 0.01 0.01 0.01 0.00 0.00 0.00 0.01 0.01 0.03 0.03 0.01 0.00 0.01 0.00 0.00 0.00 0.00 0.00 0.00 0.00 0.00 0.00 0.00 0.00 0.00 0.00 0.00 0.00 0.00 0.00 0.00 0.00 0.00 0.00 0.00 0.00 0.00 0.00 0.00 0.00 0.00 0.00 0.00 0.00 0.00 0.00 0.00 0.00 0.00 0.00 0.00 0.00 0.00 0.00 0.00 0.00 0.00 0.00 0.00 0.00 0.00 0.00 0.00 0.00 0.00 0.00 0.00 0.00 0.00 0.00 0.01 0.02 0.03 0.07 0.07 0.13 0.07 0.21
0.00 0.00 0.00 0.00 0.00 0.00 0.00 0.00 0.01 0.01 0.01 0.00 0.00 0.00 0.00 0.00 0.01 0.01 0.01 0.01 0.00 0.00 0.01 0.00 0.00 0.00 0.00 0.00 0.00 0.00 0.00 0.00 0.00 0.00 0.00 0.00 0.00 0.00 0.00 0.00 0.00 0.00 0.00 0.00 0.00 0.00 0.00 0.00 0.00 0.00 0.00 0.00 0.00 0.00 0.00 0.00 0.00 0.00 0.00 0.00 0.00 0.00 0.00 0.00 0.00 0.00 0.00 0.00 0.00 0.00 0.00 0.00 0.00 0.00 0.00 0.00 0.00 0.00 0.00 0.00 0.00 0.01 0.03 0.08 0.08 0.08 0.15 0.14
0.00 0.00 0.00 0.00 0.00 0.00 0.00 0.00 0.00 0.01 0.00 0.00 0.00 0.01 0.01 0.01 0.02 0.01 0.00 0.00 0.00 0.00 0.00 0.00 0.00 0.00 0.02 0.00 0.00 0.00 0.00 0.00 0.00 0.00 0.00 0.00 0.00 0.00 0.00 0.00 0.00 0.00 0.00 0.00 0.00 0.00 0.00 0.00 0.00 0.00 0.00 0.00 0.00 0.00 0.00 0.00 0.00 0.00 0.00 0.01 0.00 0.00 0.00 0.00 0.00 0.00 0.00 0.00 0.00 0.00 0.00 0.00 0.00 0.00 0.00 0.00 0.00 0.00 0.00 0.00 0.01 0.02 0.04 0.04 0.05 0.09 0.15 0.19
0.00 0.00 0.00 0.00 0.00 0.00 0.00 0.00 0.00 0.00 0.01 0.00 0.00 0.01 0.00 0.00 0.00 0.00 0.00 0.00 0.00 0.00 0.00 0.00 0.00 0.00 0.00 0.00 0.00 0.00 0.00 0.00 0.00 0.00 0.00 0.00 0.00 0.00 0.00 0.00 0.00 0.00 0.00 0.00 0.00 0.00 0.00 0.00 0.00 0.00 0.00 0.00 0.00 0.00 0.00 0.00 0.00 0.00 0.00 0.00 0.00 0.00 0.01 0.00 0.00 0.00 0.00 0.00 0.00 0.00 0.00 0.00 0.00 0.00 0.00 0.00 0.00 0.00 0.00 0.00 0.00 0.01 0.01 0.01 0.02 0.07 0.05 0.10
0.00 0.00 0.00 0.00 0.00 0.00 0.00 0.00 0.00 0.00 0.00 0.00 0.00 0.00 0.00 0.00 0.00 0.01 0.00 0.00 0.00 0.00 0.00 0.00 0.00 0.00 0.00 0.00 0.00 0.00 0.00 0.00 0.00 0.00 0.00 0.00 0.00 0.00 0.00 0.00 0.00 0.00 0.00 0.00 0.00 0.00 0.00 0.00 0.00 0.00 0.00 0.00 0.00 0.00 0.00 0.00 0.00 0.00 0.00 0.00 0.00 0.00 0.00 0.00 0.00 0.00 0.00 0.00 0.00 0.00 0.00 0.00 0.00 0.00 0.00 0.00 0.00 0.00 0.00 0.00 0.00 0.00 0.00 0.00 0.02 0.07 0.02 0.14
0.00 0.00 0.00 0.00 0.00 0.00 0.00 0.00 0.00 0.00 0.01 0.00 0.00 0.00 0.00 0.00 0.00 0.00 0.00 0.00 0.00 0.00 0.00 0.00 0.00 0.00 0.00 0.00 0.00 0.00 0.00 0.00 0.00 0.00 0.00 0.00 0.00 0.00 0.00 0.00 0.00 0.00 0.00 0.00 0.00 0.00 0.00 0.00 0.00 0.00 0.00 0.00 0.00 0.00 0.00 0.00 0.00 0.00 0.00 0.00 0.00 0.00 0.00 0.00 0.00 0.00 0.00 0.00 0.00 0.00 0.00 0.00 0.00 0.00 0.00 0.00 0.00 0.00 0.00 0.00 0.00 0.00 0.00 0.02 0.02 0.04 0.05 0.07
0.00 0.00 0.00 0.00 0.00 0.00 0.00 0.00 0.00 0.01 0.00 0.00 0.00 0.00 0.00 0.00 0.00 0.00 0.00 0.00 0.00 0.00 0.00 0.00 0.00 0.00 0.00 0.00 0.00 0.00 0.00 0.00 0.00 0.00 0.00 0.00 0.00 0.00 0.00 0.00 0.00 0.00 0.00 0.00 0.00 0.00 0.00 0.00 0.00 0.00 0.00 0.00 0.00 0.00 0.00 0.00 0.00 0.00 0.00 0.00 0.00 0.00 0.00 0.00 0.00 0.00 0.00 0.00 0.00 0.00 0.00 0.00 0.00 0.00 0.00 0.00 0.00 0.00 0.00 0.00 0.00 0.00 0.00 0.05 0.04 0.08 0.05 0.02
0.00 0.00 0.00 0.00 0.00 0.00 0.00 0.00 0.00 0.00 0.00 0.00 0.00 0.00 0.00 0.00 0.00 0.00 0.00 0.00 0.00 0.00 0.00 0.00 0.00 0.00 0.00 0.00 0.00 0.00 0.00 0.00 0.00 0.00 0.00 0.00 0.00 0.00 0.00 0.00 0.00 0.00 0.00 0.00 0.00 0.00 0.00 0.00 0.00 0.00 0.00 0.00 0.00 0.00 0.00 0.00 0.00 0.00 0.00 0.00 0.00 0.00 0.00 0.00 0.02 0.00 0.00 0.00 0.00 0.00 0.00 0.00 0.00 0.00 0.00 0.00 0.00 0.00 0.00 0.00 0.00 0.00 0.01 0.01 0.04 0.03 0.08 0.02
0.00 0.00 0.00 0.00 0.00 0.00 0.00 0.00 0.00 0.00 0.00 0.00 0.00 0.00 0.00 0.00 0.00 0.00 0.00 0.00 0.00 0.00 0.00 0.00 0.00 0.00 0.00 0.00 0.00 0.00 0.00 0.00 0.00 0.00 0.00 0.00 0.00 0.00 0.00 0.00 0.00 0.00 0.00 0.00 0.00 0.00 0.00 0.01 0.00 0.00 0.00 0.00 0.00 0.00 0.00 0.00 0.00 0.00 0.00 0.00 0.00 0.00 0.00 0.00 0.00 0.00 0.00 0.00 0.00 0.00 0.00 0.00 0.00 0.00 0.00 0.00 0.00 0.00 0.00 0.00 0.00 0.02 0.03 0.02 0.04 0.06 0.03 0.01
0.00 0.00 0.00 0.00 0.00 0.00 0.00 0.00 0.00 0.00 0.00 0.00 0.00 0.00 0.00 0.00 0.00 0.00 0.00 0.00 0.01 0.00 0.00 0.00 0.00 0.00 0.00 0.00 0.00 0.00 0.00 0.00 0.00 0.00 0.00 0.00 0.00 0.00 0.00 0.00 0.00 0.00 0.00 0.00 0.00 0.00 0.00 0.00 0.00 0.00 0.00 0.00 0.00 0.00 0.00 0.00 0.00 0.00 0.00 0.00 0.00 0.00 0.00 0.00 0.00 0.00 0.00 0.00 0.02 0.00 0.00 0.02 0.00 0.01 0.00 0.00 0.00 0.00 0.00 0.00 0.00 0.00 0.03 0.10 0.06 0.05 0.04 0.04
0.00 0.00 0.00 0.00 0.00 0.01 0.00 0.00 0.00 0.00 0.00 0.00 0.00 0.00 0.00 0.00 0.00 0.00 0.00 0.01 0.00 0.02 0.01 0.00 0.00 0.00 0.00 0.00 0.00 0.00 0.00 0.00 0.00 0.00 0.00 0.00 0.00 0.00 0.00 0.00 0.00 0.00 0.00 0.00 0.00 0.00 0.00 0.00 0.00 0.00 0.00 0.00 0.00 0.00 0.00 0.00 0.00 0.00 0.00 0.00 0.00 0.00 0.00 0.00 0.00 0.00 0.01 0.00 0.00 0.00 0.00 0.02 0.03 0.01 0.00 0.00 0.00 0.00 0.00 0.00 0.00 0.00 0.03 0.04 0.06 0.09 0.03 0.03
0.00 0.00 0.00 0.00 0.00 0.02 0.01 0.00 0.00 0.00 0.00 0.00 0.00 0.00 0.00 0.00 0.00 0.00 0.00 0.00 0.00 0.00 0.01 0.00 0.00 0.00 0.00 0.00 0.00 0.00 0.00 0.00 0.00 0.00 0.00 0.00 0.00 0.00 0.00 0.00 0.00 0.00 0.00 0.00 0.00 0.01 0.00 0.00 0.00 0.00 0.00 0.00 0.00 0.00 0.00 0.00 0.00 0.00 0.00 0.00 0.00 0.00 0.00 0.00 0.00 0.00 0.00 0.01 0.03 0.00 0.00 0.00 0.01 0.01 0.00 0.00 0.00 0.00 0.00 0.00 0.00 0.00 0.01 0.03 0.04 0.04 0.09 0.08
0.00 0.00 0.00 0.00 0.00 0.00 0.01 0.00 0.00 0.00 0.00 0.00 0.00 0.00 0.00 0.00 0.00 0.00 0.07 0.02 0.04 0.00 0.00 0.02 0.00 0.00 0.00 0.00 0.00 0.00 0.00 0.00 0.00 0.00 0.00 0.00 0.00 0.00 0.00 0.00 0.00 0.00 0.00 0.00 0.00 0.01 0.00 0.00 0.00 0.00 0.00 0.00 0.00 0.00 0.00 0.00 0.00 0.00 0.00 0.00 0.00 0.00 0.00 0.00 0.00 0.00 0.02 0.00 0.02 0.01 0.02 0.01 0.03 0.00 0.01 0.00 0.00 0.00 0.00 0.00 0.02 0.01 0.02 0.02 0.05 0.05 0.08 0.16
0.00 0.00 0.00 0.01 0.01 0.00 0.00 0.01 0.00 0.00 0.00 0.00 0.00 0.00 0.00 0.00 0.00 0.00 0.01 0.00 0.00 0.03 0.00 0.00 0.00 0.00 0.00 0.00 0.00 0.00 0.00 0.00 0.00 0.00 0.00 0.00 0.00 0.00 0.00 0.00 0.00 0.00 0.00 0.00 0.00 0.00 0.00 0.00 0.00 0.00 0.00 0.00 0.00 0.00 0.00 0.00 0.00 0.00 0.00 0.00 0.00 0.00 0.00 0.00 0.00 0.00 0.01 0.00 0.01 0.00 0.01 0.01 0.06 0.02 0.03 0.01 0.01 0.00 0.01 0.05 0.02 0.04 0.03 0.04 0.04 0.05 0.04 0.05
0.00 0.00 0.01 0.01 0.02 0.00 0.00 0.00 0.00 0.00 0.00 0.00 0.00 0.00 0.00 0.00 0.00 0.01 0.00 0.00 0.00 0.02 0.00 0.00 0.00 0.00 0.00 0.00 0.00 0.00 0.00 0.00 0.00 0.00 0.00 0.00 0.00 0.00 0.00 0.00 0.00 0.00 0.00 0.00 0.00 0.00 0.00 0.00 0.00 0.00 0.00 0.00 0.00 0.00 0.00 0.00 0.00 0.00 0.00 0.00 0.00 0.00 0.00 0.00 0.00 0.00 0.04 0.00 0.02 0.00 0.00 0.04 0.10 0.06 0.02 0.02 0.01 0.03 0.03 0.03 0.00 0.02 0.04 0.06 0.04 0.10 0.03 0.03
0.00 0.01 0.01 0.04 0.00 0.02 0.00 0.00 0.00 0.00 0.00 0.00 0.00 0.00 0.00 0.00 0.00 0.00 0.00 0.00 0.01 0.00 0.00 0.01 0.00 0.00 0.00 0.00 0.00 0.00 0.00 0.00 0.00 0.00 0.00 0.00 0.00 0.00 0.00 0.00 0.00 0.00 0.00 0.00 0.01 0.00 0.00 0.00 0.00 0.00 0.00 0.00 0.00 0.00 0.00 0.00 0.00 0.00 0.00 0.00 0.01 0.08 0.00 0.01 0.00 0.00 0.00 0.01 0.00 0.00 0.01 0.01 0.00 0.10 0.07 0.00 0.03 0.01 0.03 0.02 0.09 0.02 0.02 0.05 0.02 0.05 0.15 0.03
0.00 0.01 0.01 0.01 0.01 0.01 0.00 0.00 0.00 0.00 0.00 0.00 0.00 0.00 0.00 0.03 0.00 0.00 0.00 0.00 0.05 0.00 0.01 0.00 0.02 0.00 0.01 0.00 0.00 0.00 0.00 0.01 0.01 0.01 0.00 0.00 0.00 0.00 0.00 0.00 0.00 0.00 0.00 0.03 0.02 0.00 0.01 0.00 0.00 0.00 0.00 0.00 0.00 0.00 0.01 0.00 0.00 0.00 0.00 0.00 0.03 0.07 0.04 0.01 0.05 0.01 0.04 0.02 0.00 0.00 0.01 0.04 0.06 0.02 0.01 0.00 0.01 0.01 0.01 0.02 0.02 0.01 0.01 0.02 0.02 0.06 0.09 0.08
0.00 0.00 0.00 0.00 0.00 0.00 0.00 0.00 0.00 0.00 0.00 0.00 0.00 0.00 0.00 0.00 0.00 0.00 0.00 0.00 0.01 0.00 0.00 0.00 0.00 0.00 0.00 0.07 0.14 0.00 0.05 0.00 0.00 0.00 0.00 0.01 0.00 0.02 0.00 0.00 0.00 0.00 0.00 0.07 0.02 0.01 0.01 0.07 0.01 0.00 0.00 0.00 0.00 0.00 0.00 0.01 0.00 0.00 0.00 0.00 0.02 0.05 0.02 0.01 0.02 0.06 0.06 0.09 0.06 0.00 0.00 0.06 0.06 0.58 0.01 0.05 0.03 0.01 0.00 0.02 0.03 0.05 0.06 0.03 0.03 0.16 0.14 0.17
0.00 0.00 0.00 0.00 0.00 0.00 0.00 0.00 0.00 0.00 0.00 0.00 0.00 0.00 0.00 0.00 0.00 0.00 0.00 0.00 0.00 0.00 0.00 0.00 0.00 0.00 0.00 0.00 0.01 0.02 0.01 0.18 0.00 0.00 0.00 0.01 0.02 0.00 0.00 0.00 0.00 0.00 0.00 0.00 0.04 0.00 0.01 0.06 0.02 0.00 0.00 0.00 0.00 0.00 0.00 0.00 0.00 0.00 0.00 0.01 0.00 0.03 0.00 0.02 0.18 0.02 0.19 0.05 0.02 0.05 0.03 0.10 0.13 0.08 0.06 0.07 0.02 0.01 0.04 0.03 0.03 0.03 0.05 0.02 0.11 0.13 0.16 0.16
0.00 0.00 0.00 0.00 0.00 0.00 0.00 0.00 0.00 0.00 0.00 0.00 0.00 0.00 0.00 0.00 0.00 0.00 0.00 0.00 0.01 0.00 0.00 0.00 0.00 0.00 0.00 0.01 0.00 0.02 0.02 0.03 0.09 0.01 0.01 0.00 0.01 0.00 0.00 0.00 0.00 0.00 0.03 0.00 0.07 0.03 0.00 0.09 0.00 0.01 0.00 0.00 0.00 0.00 0.00 0.00 0.14 0.06 0.00 0.01 0.00 0.00 0.00 0.00 0.00 0.00 0.00 0.00 0.01 0.01 0.12 0.01 0.01 0.03 0.04 0.11 0.02 0.04 0.09 0.03 0.04 0.26 0.36 0.49 0.58 0.79 0.87 0.84
0.00 0.00 0.00 0.00 0.00 0.00 0.00 0.00 0.00 0.00 0.00 0.00 0.00 0.00 0.00 0.00 0.00 0.00 0.00 0.00 0.00 0.00 0.00 0.00 0.00 0.00 0.01 0.00 0.03 0.00 0.11 0.00 0.11 0.02 0.15 0.01 0.15 0.00 0.00 0.01 0.00 0.00 0.00 0.00 0.09 0.00 0.04 0.21 0.00 0.00 0.01 0.00 0.00 0.00 0.00 0.00 0.00 0.00 0.01 0.05 0.00 0.00 0.00 0.01 0.04 0.01 0.00 0.00 0.11 0.01 0.05 0.12 0.04 0.41 0.20 0.19 0.31 0.18 0.17 0.22 0.40 0.42 0.52 0.59 0.75 0.71 0.83 0.98
0.00 0.00 0.03 0.01 0.00 0.00 0.00 0.00 0.00 0.00 0.00 0.00 0.00 0.00 0.00 0.00 0.00 0.00 0.00 0.00 0.00 0.00 0.00 0.00 0.00 0.00 0.01 0.01 0.06 0.01 0.06 0.04 0.26 0.04 0.09 0.03 0.14 0.00 0.03 0.03 0.00 0.01 0.00 0.00 0.01 0.10 0.00 0.08 0.01 0.00 0.00 0.01 0.00 0.00 0.00 0.00 0.00 0.00 0.06 0.00 0.01 0.03 0.02 0.01 0.01 0.02 0.01 0.00 0.04 0.02 0.04 0.11 0.16 0.38 0.11 0.39 0.47 0.26 0.22 0.23 0.15 0.13 0.11 0.34 0.69 0.94 0.88 0.53
0.00 0.01 0.11 0.01 0.00 0.00 0.00 0.00 0.00 0.00 0.00 0.00 0.00 0.00 0.00 0.00 0.00 0.00 0.00 0.00 0.00 0.01 0.00 0.00 0.00 0.00 0.00 0.01 0.03 0.01 0.08 0.06 0.04 0.12 0.11 0.19 0.18 0.20 0.05 0.00 0.03 0.00 0.00 0.00 0.01 0.01 0.00 0.03 0.04 0.00 0.00 0.01 0.00 0.00 0.02 0.01 0.00 0.00 0.00 0.00 0.00 0.00 0.09 0.04 0.00 0.03 0.00 0.10 0.00 0.06 0.02 0.07 0.14 0.30 0.24 0.20 0.23 0.35 0.21 0.19 0.32 0.33 0.45 0.30 0.33 0.24 0.36 0.39
0.01 0.04 0.26 0.00 0.00 0.00 0.00 0.00 0.00 0.01 0.00 0.00 0.00 0.00 0.00 0.00 0.00 0.00 0.00 0.00 0.01 0.00 0.01 0.00 0.00 0.00 0.00 0.00 0.00 0.04 0.03 0.04 0.06 0.27 0.06 0.51 0.11 0.13 0.10 0.00 0.12 0.03 0.00 0.00 0.00 0.00 0.03 0.00 0.10 0.07 0.01 0.00 0.07 0.00 0.01 0.00 0.02 0.00 0.00 0.00 0.00 0.00 0.02 0.00 0.06 0.04 0.03 0.07 0.09 0.06 0.18 0.37 0.23 0.09 0.12 0.28 0.20 0.12 0.41 0.40 0.30 0.45 0.49 0.68 0.58 0.34 0.38 0.42
0.02 0.20 0.31 0.00 0.00 0.00 0.00 0.00 0.00 0.00 0.00 0.00 0.00 0.00 0.00 0.00 0.00 0.00 0.00 0.00 0.00 0.00 0.00 0.00 0.01 0.00 0.00 0.00 0.00 0.00 0.04 0.00 0.06 0.14 0.02 0.10 0.16 0.45 0.00 0.08 0.03 0.18 0.00 0.01 0.01 0.01 0.00 0.01 0.01 0.07 0.13 0.03 0.03 0.00 0.00 0.00 0.00 0.00 0.00 0.00 0.00 0.01 0.01 0.03 0.03 0.00 0.01 0.02 0.12 0.07 0.15 0.19 0.42 0.09 0.41 0.32 0.08 0.43 0.35 0.53 0.58 0.48 0.43 0.31 0.29 0.46 0.37 0.55
0.04 0.37 0.32 0.00 0.00 0.00 0.01 0.12 0.04 0.02 0.02 0.04 0.01 0.00 0.00 0.00 0.00 0.00 0.00 0.00 0.00 0.00 0.00 0.00 0.00 0.00 0.00 0.00 0.00 0.00 0.00 0.00 0.08 0.20 0.17 0.27 0.22 0.22 0.15 0.01 0.01 0.03 0.16 0.13 0.16 0.11 0.04 0.09 0.09 0.05 0.07 0.35 0.02 0.05 0.00 0.00 0.00 0.00 0.02 0.05 0.00 0.00 0.00 0.04 0.04 0.14 0.04 0.03 0.02 0.16 0.16 0.40 0.23 0.22 0.19 0.34 0.09 0.07 0.39 0.53 1.03 0.51 0.56 0.26 0.18 0.21 0.58 0.49
0.07 0.53 0.16 0.02 0.00 0.01 0.06 0.18 0.04 0.02 0.11 0.03 0.00 0.00 0.00 0.00 0.00 0.01 0.00 0.00 0.01 0.00 0.00 0.00 0.00 0.00 0.00 0.00 0.00 0.00 0.00 0.01 0.02 0.19 0.09 0.12 0.16 0.05 0.01 0.02 0.02 0.03 0.02 0.28 0.03 0.08 0.00 0.03 0.11 0.06 0.07 0.09 0.12 0.01 0.00 0.00 0.00 0.01 0.01 0.01 0.01 0.07 0.01 0.05 0.07 0.15 0.18 0.17 0.13 0.08 0.05 0.46 0.37 0.30 0.35 0.22 0.19 0.14 0.23 0.80 0.45 0.80 0.68 0.49 0.27 0.17 0.18 0.30
0.23 0.48 0.05 0.01 0.00 0.01 0.22 0.14 0.09 0.05 0.09 0.01 0.02 0.05 0.00 0.01 0.00 0.00 0.00 0.00 0.00 0.01 0.00 0.00 0.00 0.00 0.02 0.00 0.00 0.00 0.00 0.01 0.00 0.02 0.09 0.04 0.26 0.03 0.09 0.08 0.02 0.18 0.13 0.38 0.16 0.12 0.19 0.23 0.06 0.35 0.20 0.25 0.23 0.09 0.05 0.00 0.00 0.03 0.14 0.06 0.07 0.05 0.03 0.03 0.05 0.05 0.05 0.11 0.18 0.10 0.32 0.30 0.27 0.25 0.12 0.35 0.15 0.57 0.63 0.66 0.79 0.73 0.84 0.48 0.27 0.11 0.08 0.14
0.43 0.17 0.12 0.09 0.13 0.25 0.37 0.37 0.17 0.04 0.07 0.08 0.06 0.07 0.08 0.02 0.00 0.01 0.04 0.04 0.01 0.01 0.00 0.00 0.00 0.05 0.00 0.00 0.00 0.00 0.00 0.00 0.11 0.00 0.02 0.20 0.21 0.01 0.09 0.03 0.05 0.18 0.07 0.03 0.02 0.05 0.14 0.36 0.18 0.28 0.33 0.40 0.36 0.28 0.29 0.16 0.16 0.13 0.07 0.05 0.11 0.01 0.01 0.04 0.03 0.05 0.04 0.09 0.12 0.15 0.08 0.24 0.26 0.15 0.23 0.62 0.68 0.73 0.82 0.57 0.60 0.72 0.58 0.55 0.83 0.24 0.65 0.39
0.48 0.13 0.06 0.55 0.45 0.39 0.12 0.18 0.04 0.06 0.04 0.06 0.03 0.02 0.02 0.09 0.01 0.00 0.00 0.02 0.01 0.01 0.00 0.01 0.00 0.00 0.00 0.00 0.00 0.00 0.00 0.00 0.01 0.08 0.03 0.14 0.05 0.02 0.03 0.06 0.06 0.09 0.01 0.01 0.05 0.05 0.15 0.13 0.16 0.20 0.32 0.32 0.51 0.30 0.24 0.04 0.07 0.20 0.20 0.13 0.12 0.10 0.10 0.11 0.09 0.04 0.14 0.15 0.11 0.30 0.24 0.19 0.24 0.28 0.12 0.15 0.26 0.19 0.30 0.32 0.60 0.51 0.70 0.39 0.56 1.09 0.77 0.95
0.25 0.19 0.01 0.07 0.20 0.63 0.59 0.13 0.21 0.10 0.29 0.11 0.04 0.06 0.05 0.03 0.09 0.15 0.00 0.12 0.00 0.00 0.00 0.00 0.01 0.01 0.02 0.00 0.01 0.01 0.00 0.00 0.00 0.01 0.02 0.03 0.07 0.03 0.00 0.02 0.05 0.08 0.06 0.04 0.02 0.10 0.10 0.08 0.13 0.12 0.19 0.15 0.16 0.19 0.17 0.06 0.15 0.08 0.05 0.18 0.07 0.03 0.08 0.04 0.05 0.10 0.25 0.05 0.31 0.40 0.29 0.17 0.32 0.18 0.18 0.14 0.17 0.03 0.06 0.13 0.08 0.11 0.30 0.74 1.14 0.44 0.39 0.31
0.22 0.06 0.02 0.06 0.16 0.45 0.62 0.53 0.20 0.37 0.32 0.02 0.06 0.03 0.07 0.06 0.05 0.12 0.01 0.01 0.00 0.00 0.03 0.00 0.00 0.00 0.00 0.02 0.01 0.00 0.02 0.01 0.02 0.01 0.02 0.03 0.06 0.02 0.01 0.01 0.02 0.03 0.02 0.05 0.02 0.07 0.36 0.22 0.17 0.07 0.14 0.17 0.15 0.12 0.10 0.26 0.16 0.10 0.05 0.03 0.22 0.03 0.02 0.11 0.08 0.09 0.15 0.06 0.24 0.44 0.41 0.22 0.20 0.20 0.23 0.45 0.12 0.02 0.04 0.07 0.08 0.06 0.06 0.12 0.37 0.45 0.55 0.61
0.16 0.03 0.23 0.02 0.23 0.27 0.15 0.33 0.33 0.27 0.30 0.09 0.17 0.10 0.11 0.11 0.09 0.02 0.02 0.09 0.03 0.10 0.01 0.01 0.00 0.02 0.01 0.01 0.01 0.04 0.07 0.06 0.00 0.03 0.04 0.11 0.03 0.05 0.20 0.10 0.08 0.03 0.03 0.02 0.04 0.03 0.05 0.18 0.79 0.27 0.16 0.25 0.15 0.10 0.11 0.14 0.20 0.14 0.09 0.07 0.10 0.08 0.11 0.06 0.09 0.09 0.06 0.16 0.19 0.15 0.12 0.07 0.11 0.13 0.25 0.36 0.22 0.01 0.01 0.02 0.03 0.02 0.03 0.04 0.10 0.12 0.39 0.37
0.24 0.13 0.04 0.05 0.15 0.06 0.07 0.08 0.12 0.23 0.27 0.20 0.08 0.08 0.05 0.05 0.05 0.04 0.01 0.03 0.02 0.01 0.01 0.13 0.02 0.03 0.03 0.01 0.03 0.13 0.02 0.08 0.09 0.01 0.01 0.00 0.02 0.02 0.14 0.14 0.47 0.26 0.20 0.16 0.11 0.49 0.06 0.34 0.09 0.26 0.28 0.30 0.21 0.09 0.13 0.07 0.12 0.29 0.11 0.08 0.09 0.06 0.14 0.10 0.07 0.07 0.02 0.19 0.20 0.06 0.06 0.07 0.21 0.19 0.37 0.60 0.24 0.00 0.02 0.29 0.05 0.06 0.06 0.03 0.07 0.06 0.09 0.22
0.27 0.12 0.04 0.17 0.14 0.03 0.02 0.02 0.04 0.10 0.24 0.19 0.23 0.15 0.04 0.04 0.03 0.02 0.05 0.01 0.03 0.01 0.00 0.01 0.06 0.14 0.05 0.02 0.01 0.01 0.01 0.02 0.02 0.01 0.00 0.00 0.04 0.06 0.02 0.17 0.02 0.16 0.16 0.26 0.06 0.45 0.13 0.25 0.07 0.25 0.29 0.28 0.24 0.28 0.36 0.23 0.11 0.30 0.60 0.28 0.30 0.09 0.04 0.04 0.05 0.15 0.05 0.35 0.47 0.35 0.13 0.22 0.09 0.05 0.56 0.26 0.21 0.04 0.10 0.28 0.38 0.45 0.39 0.41 0.35 0.28 0.09 0.11
0.04 0.01 0.04 0.05 0.05 0.00 0.03 0.00 0.01 0.03 0.15 0.14 0.25 0.29 0.16 0.11 0.65 0.04 0.04 0.02 0.02 0.00 0.02 0.00 0.03 0.17 0.04 0.01 0.03 0.02 0.01 0.00 0.00 0.00 0.00 0.00 0.00 0.01 0.00 0.00 0.01 0.02 0.09 0.20 0.19 0.36 0.49 0.25 0.34 0.40 0.21 0.26 0.32 0.28 0.35 0.33 0.29 0.49 0.24 0.14 0.18 0.19 0.10 0.16 0.08 0.06 0.28 0.35 0.55 0.22 0.23 0.05 0.09 0.03 0.07 0.34 0.18 0.18 0.45 0.26 0.41 0.39 0.29 0.32 0.25 0.15 0.12 0.12